This demonstration page uses our WeatherBlox Daily Observations layout. Learn more.

38.89511, -77.03637

Hourly Observations for February 6, 2020

Temp ( °F °C ) Dew Point ( °F °C ) Humidity (%) Winds ( mph kmh ) Pressure ( in mb ) Visibility ( mi km ) Precip ( " mm )
12:18 am 00:18 Cloudy with Mist and Fog 39 3.9 38 3.3 96 96 NNE 5 7 29.89 1012 2.5 4.02335 0.01 0.254
12:28 am 00:28 Cloudy with Mist and Fog 39 3.9 38 3.3 96 96 NNE 6 9 29.89 1012 2.5 4.02335 0.01 0.254
12:38 am 00:38 Cloudy with Mist and Fog 39 3.9 38 3.3 96 96 NE 5 7 29.88 1012 2.5 4.02335 0.01 0.254
12:40 am 00:40 Cloudy with Mist and Fog 39 3.9 38 3.3 96 96 NNE 5 7 29.89 1012 3 4.82802 0.01 0.254
12:52 am 00:52 Cloudy with Mist and Fog 39 3.9 38 3.3 96 96 NNE 3 6 29.88 1012 3 4.82802 0.01 0.254
1:04 am 01:04 Cloudy with Mist and Fog 39 3.9 38 3.3 96 96 NNE 7 11 29.87 1012 2.5 4.02335 0 0
1:52 am 01:52 Cloudy with Mist and Fog 39 3.9 38 3.3 96 96 N 5 7 29.86 1011 2.5 4.02335 0 0
2:36 am 02:36 Cloudy with Mist and Fog 39 3.9 38 3.3 96 96 NNW 5 7 29.84 1011 2.5 4.02335 0 0
2:52 am 02:52 Cloudy with Mist and Fog 39 3.9 38 3.3 96 96 NNW 7 11 29.83 1010 2.5 4.02335 0 0
3:38 am 03:38 Cloudy with Mist and Fog 39 3.9 39 3.9 100 100 N 3 6 29.79 1009 3 4.82802 0 0
3:52 am 03:52 Cloudy with Mist and Fog 39 3.9 39 3.9 100 100 Calm 29.76 1008 4 6.43736 0 0
4:52 am 04:52 Cloudy with Light Rain 40 4.4 38 3.3 93 93 SSE 8 13 29.71 1006 8 12.87472 0.001 0.001
5:11 am 05:11 Mostly Cloudy 40 4.4 38 3.3 93 93 SSE 8 13 29.7 1006 9 14.48406 0.01 0.254
5:27 am 05:27 Cloudy 40 4.4 38 3.3 93 93 S 10 17 29.69 1005 10 16.0934 0.01 0.254
5:52 am 05:52 Cloudy 40 4.4 38 3.3 93 93 ESE 5 7 29.67 1005 10 16.0934 0.01 0.254
6:52 am 06:52 Cloudy 41 5 39 3.9 93 93 S 8 13 29.67 1005 10 16.0934 0.001 0.001
7:46 am 07:46 Cloudy 41 5 39 4 93 93 W 6 9 29.7 1006 10 16.0934 0 0
7:52 am 07:52 Cloudy 41 5 39 3.9 93 93 SW 5 7 29.7 1006 10 16.0934 0 0
8:52 am 08:52 Cloudy 41 5 39 3.9 93 93 S 6 9 29.68 1005 10 16.0934 0 0
9:01 am 09:01 Cloudy 41 5 39 3.9 93 93 SSW 6 9 29.69 1005 10 16.0934 0 0
9:09 am 09:09 Cloudy 41 5 39 3.9 93 93 SSW 6 9 29.68 1005 10 16.0934 0 0
9:30 am 09:30 Cloudy with Light Rain 41 5 39 3.9 93 93 S 8 13 29.68 1005 10 16.0934 0.001 0.001
9:52 am 09:52 Cloudy with Light Rain 41 5 40 4.4 96 96 SSW 6 9 29.67 1005 9 14.48406 0.001 0.001
10:52 am 10:52 Cloudy with Light Rain 42 5.6 40 4.4 92 92 S 6 9 29.64 1004 7 11.26538 0.01 0.254
11:52 am 11:52 Cloudy with Light Rain 42 5.6 41 5 96 96 S 12 19 29.6 1002 6 9.65604 0.04 1.016
12:52 pm 12:52 Cloudy with Light Rain 43 6.1 41 5 93 93 SW 3 6 29.55 1001 5 8.0467 0.14 3.556
1:52 pm 13:52 Cloudy with Light Rain 43 6.1 42 5.6 97 97 Calm 29.49 999 5 8.0467 0.08 2.032
2:45 pm 14:45 Cloudy with Rain 43 6.1 42 5.6 97 97 S 5 7 29.49 999 2.5 4.02335 0.15 3.81
2:49 pm 14:49 Cloudy with Rain 43 6 43 6 100 100 SSE 3 6 29.48 998 3 4.82802 0.17 4.318
2:52 pm 14:52 Cloudy with Rain 43 6.1 42 5.6 97 97 SSE 6 9 29.48 998 3 4.82802 0.18 4.572
2:55 pm 14:55 Cloudy with Rain 43 6.1 42 5.6 97 97 S 6 9 29.48 998 3 4.82802 0.01 0.254
3:14 pm 15:14 Cloudy with Light Rain 44 6.7 43 6.1 96 96 Calm 29.46 998 4 6.43736 0.05 1.27
3:28 pm 15:28 Cloudy with Rain 44 6.7 43 6.1 96 96 SSE 5 7 29.44 997 4 6.43736 0.08 2.032
3:46 pm 15:46 Cloudy with Light Rain 45 7 43 6 93 93 SE 8 13 29.4 996 6 9.65604 0.1 2.54
3:52 pm 15:52 Cloudy with Light Rain 44 6.7 43 6.1 96 96 Calm 29.41 996 7 11.26538 0.11 2.794
3:58 pm 15:58 Cloudy with Light Rain 45 7.2 44 6.7 97 97 N 7 11 29.39 995 6 9.65604 0.001 0.001
4:10 pm 16:10 Cloudy with Light Rain 45 7.2 43 6.1 93 93 N 6 9 29.39 995 7 11.26538 0.01 0.254
4:52 pm 16:52 Cloudy with Light Rain 46 7.8 44 6.7 93 93 N 10 17 29.41 996 10 16.0934 0.02 0.508
5:52 pm 17:52 Cloudy with Light Rain 46 7.8 44 6.7 93 93 NNE 7 11 29.45 997 10 16.0934 0.01 0.254
6:39 pm 18:39 Cloudy with Light Rain 45 7.2 44 6.7 97 97 NE 6 9 29.49 999 6 9.65604 0.01 0.254
6:52 pm 18:52 Cloudy with Rain 45 7.2 44 6.7 97 97 ENE 7 11 29.47 998 4 6.43736 0.02 0.508
7:07 pm 19:07 Cloudy with Light Rain 45 7.2 44 6.7 97 97 ENE 7 11 29.47 998 4 6.43736 0.03 0.762
7:16 pm 19:16 Cloudy with Light Rain 45 7.2 44 6.7 97 97 ENE 8 13 29.47 998 5 8.0467 0.04 1.016
7:24 pm 19:24 Cloudy with Light Rain 45 7.2 43 6.1 93 93 ENE 8 13 29.47 998 6 9.65604 0.05 1.27
7:41 pm 19:41 Cloudy with Light Rain 45 7.2 44 6.7 97 97 ENE 7 11 29.46 998 7 11.26538 0.06 1.524
7:52 pm 19:52 Cloudy with Light Rain 45 7.2 43 6.1 93 93 ESE 12 19 29.41 996 7 11.26538 0.07 1.778
7:59 pm 19:59 Cloudy with Light Rain 45 7.2 43 6.1 93 93 SE 9 15 29.42 996 9 14.48406 0.001 0.001
8:04 pm 20:04 Cloudy with Light Rain 45 7.2 44 6.7 97 97 SE 7 11 29.41 996 10 16.0934 0.001 0.001
8:16 pm 20:16 Cloudy with Light Rain 45 7.2 43 6.1 93 93 SSE 8 13 29.41 996 10 16.0934 0.01 0.254
8:24 pm 20:24 Cloudy with Light Rain 46 7.8 44 6.7 93 93 Calm 29.42 996 10 16.0934 0.01 0.254
8:52 pm 20:52 Cloudy with Light Rain 46 7.8 44 6.7 93 93 NW 5 7 29.46 998 10 16.0934 0.02 0.508
9:52 pm 21:52 Cloudy with Light Rain 45 7.2 44 6.7 97 97 SE 5 7 29.41 996 10 16.0934 0.01 0.254
10:52 pm 22:52 Cloudy with Light Rain 47 8.3 46 7.8 97 97 W 3 6 29.39 995 10 16.0934 0.01 0.254
11:52 pm 23:52 Cloudy with Light Rain 47 8.3 46 7.8 97 97 S 6 9 29.38 995 5 8.0467 0.04 1.016

Powered by AerisWeather